| time (UTC) | temp C | wind direction | speed KPH | gust KPH | rain 1hr cm | rain 24hr cm | rain mn cm | humidity % | barometer mb |
| 20260831034109 | 22 | 125 | 0.0 | 0.0 | 0.00 | 2.21 | 2.21 | 99 | 1015.9 |
| 20260831033604 | 22 | 125 | 0.0 | 0.0 | 0.00 | 2.21 | 2.21 | 99 | 1016.2 |
| 20260831033059 | 22 | 125 | 0.0 | 0.0 | 0.00 | 2.21 | 2.21 | 99 | 1016.1 |
| 20260831032559 | 22 | 125 | 0.0 | 0.0 | 0.00 | 2.21 | 2.21 | 99 | 1016.0 |
| 20260831032054 | 22 | 125 | 0.0 | 0.0 | 0.00 | 2.21 | 2.21 | 99 | 1016.0 |
| 20260831031554 | 23 | 125 | 0.0 | 0.0 | 0.00 | 2.21 | 2.21 | 99 | 1015.9 |
| 20260831031054 | 22 | 125 | 0.0 | 0.0 | 0.00 | 2.21 | 2.21 | 99 | 1016.0 |
| 20260831030553 | 22 | 125 | 0.0 | 0.0 | 0.00 | 2.21 | 2.21 | 99 | 1015.9 |
| 20260831030052 | 23 | 125 | 0.0 | 0.0 | 0.00 | 2.21 | 2.21 | 99 | 1016.0 |
| 20260831025551 | 23 | 126 | 0.0 | 0.0 | 0.00 | 2.21 | 2.21 | 99 | 1016.1 |
| 20260831025046 | 23 | 123 | 0.0 | 0.0 | 0.00 | 2.21 | 2.21 | 99 | 1015.8 |
| 20260831024542 | 23 | 124 | 0.0 | 0.0 | 0.00 | 2.21 | 2.21 | 99 | 1016.2 |
| 20260831024040 | 23 | 122 | 0.0 | 0.0 | 0.00 | 2.21 | 2.21 | 99 | 1015.8 |
| 20260831023539 | 23 | 122 | 0.0 | 0.0 | 0.00 | 2.21 | 2.21 | 99 | 1015.7 |
| 20260831023033 | 23 | 122 | 0.0 | 0.0 | 0.00 | 2.21 | 2.21 | 99 | 1015.9 |
| 20260831022533 | 23 | 124 | 0.0 | 0.0 | 0.00 | 2.21 | 2.21 | 99 | 1015.8 |
| 20260831022028 | 23 | 123 | 0.0 | 0.0 | 0.00 | 2.21 | 2.21 | 99 | 1015.8 |
| 20260831021527 | 23 | 125 | 0.0 | 0.0 | 0.00 | 2.21 | 2.21 | 99 | 1016.0 |
| 20260831021023 | 23 | 125 | 0.0 | 0.0 | 0.00 | 2.21 | 2.21 | 99 | 1016.1 |
| 20260831020518 | 23 | 125 | 0.0 | 0.0 | 0.00 | 2.21 | 2.21 | 99 | 1015.8 |
| 20260831020013 | 23 | 125 | 0.0 | 0.0 | 0.00 | 2.21 | 2.21 | 99 | 1015.8 |
| 20260831015509 | 23 | 123 | 0.0 | 0.0 | 0.00 | 2.21 | 2.21 | 99 | 1015.9 |
| 20260831015004 | 23 | 123 | 0.0 | 0.0 | 0.00 | 2.21 | 2.21 | 99 | 1015.8 |
| 20260831014458 | 23 | 123 | 0.0 | 0.0 | 0.00 | 2.21 | 2.21 | 99 | 1015.9 |
| 20260831013953 | 23 | 124 | 0.0 | 0.0 | 0.00 | 2.21 | 2.21 | 99 | 1015.5 |
| 20260831013449 | 23 | 123 | 0.0 | 0.0 | 0.00 | 2.21 | 2.21 | 99 | 1015.9 |
| 20260831012943 | 23 | 123 | 0.0 | 0.0 | 0.00 | 2.21 | 2.21 | 99 | 1015.9 |
| 20260831012439 | 23 | 127 | 0.0 | 0.0 | 0.00 | 2.21 | 2.21 | 99 | 1015.8 |
| 20260831011938 | 23 | 127 | 0.0 | 0.0 | 0.00 | 2.21 | 2.21 | 99 | 1015.8 |
| 20260831011433 | 23 | 127 | 0.0 | 0.0 | 0.00 | 2.21 | 2.21 | 99 | 1015.8 |
| 20260831010929 | 23 | 127 | 0.0 | 0.0 | 0.00 | 2.21 | 2.21 | 99 | 1015.5 |
| 20260831010424 | 23 | 127 | 0.0 | 0.0 | 0.00 | 2.21 | 2.21 | 99 | 1015.7 |
| 20260831005919 | 23 | 127 | 0.0 | 0.0 | 0.00 | 2.21 | 2.21 | 99 | 1015.7 |
| 20260831005415 | 23 | 127 | 0.0 | 0.0 | 0.00 | 2.21 | 2.21 | 99 | 1015.2 |
| 20260831004909 | 23 | 127 | 0.0 | 0.0 | 0.00 | 2.21 | 2.21 | 99 | 1015.2 |
| 20260831004406 | 23 | 127 | 0.0 | 0.0 | 0.00 | 2.21 | 2.21 | 99 | 1015.2 |
| 20260831003901 | 23 | 127 | 0.0 | 0.0 | 0.00 | 2.21 | 2.21 | 99 | 1015.1 |
| 20260831003357 | 23 | 128 | 0.0 | 0.0 | 0.00 | 2.21 | 2.21 | 99 | 1015.0 |
| 20260831002856 | 23 | 127 | 0.0 | 0.0 | 0.00 | 2.21 | 2.21 | 99 | 1015.0 |
| 20260831002355 | 24 | 127 | 0.0 | 0.0 | 0.00 | 2.21 | 2.21 | 99 | 1015.3 |
| 20260831001851 | 24 | 127 | 0.0 | 0.0 | 0.00 | 2.21 | 2.21 | 99 | 1015.0 |
| 20260831001351 | 24 | 127 | 0.0 | 0.0 | 0.00 | 2.21 | 2.21 | 98 | 1015.2 |
| 20260831000849 | 24 | 127 | 0.0 | 0.0 | 0.00 | 2.21 | 2.21 | 98 | 1014.8 |
| 20260831000344 | 25 | 127 | 0.0 | 0.0 | 0.00 | 2.21 | 2.21 | 98 | 1014.8 |
| 20260830235842 | 25 | 127 | 0.0 | 0.0 | 0.00 | 2.21 | 2.21 | 98 | 1015.2 |
| 20260830235337 | 25 | 127 | 0.0 | 0.0 | 0.00 | 2.21 | 2.21 | 97 | 1015.0 |
| 20260830234833 | 25 | 127 | 0.0 | 0.0 | 0.00 | 2.21 | 2.21 | 97 | 1014.9 |
| 20260830234328 | 25 | 127 | 0.0 | 0.0 | 0.00 | 2.21 | 2.21 | 96 | 1014.9 |
| 20260830233824 | 26 | 127 | 0.0 | 0.0 | 0.00 | 2.21 | 2.21 | 96 | 1014.8 |
| 20260830233319 | 26 | 127 | 0.0 | 0.0 | 0.00 | 2.21 | 2.21 | 96 | 1014.8 |
| 20260830232815 | 26 | 127 | 0.0 | 0.0 | 0.00 | 2.21 | 2.21 | 96 | 1014.6 |
| 20260830232310 | 26 | 127 | 0.0 | 0.0 | 0.00 | 2.21 | 2.21 | 96 | 1014.5 |
| 20260830231806 | 26 | 127 | 0.0 | 0.0 | 0.00 | 2.21 | 2.21 | 96 | 1014.3 |
| 20260830231301 | 26 | 127 | 0.0 | 0.0 | 0.00 | 2.21 | 2.21 | 96 | 1014.4 |
| 20260830230755 | 26 | 127 | 0.0 | 0.0 | 0.00 | 2.21 | 2.21 | 96 | 1014.3 |
| 20260830230250 | 26 | 125 | 1.6 | 1.6 | 0.00 | 2.21 | 2.21 | 96 | 1014.3 |
| 20260830225750 | 26 | 127 | 1.6 | 1.6 | 0.00 | 2.21 | 2.21 | 96 | 1014.1 |
| 20260830225245 | 26 | 130 | 1.6 | 1.6 | 0.00 | 2.21 | 2.21 | 95 | 1014.3 |
| 20260830224744 | 26 | 125 | 1.6 | 1.6 | 0.00 | 2.21 | 2.21 | 95 | 1014.3 |
| 20260830224240 | 26 | 126 | 1.6 | 1.6 | 0.00 | 2.21 | 2.21 | 95 | 1014.4 |
| 20260830223736 | 26 | 128 | 3.2 | 3.2 | 0.00 | 2.21 | 2.21 | 95 | 1014.3 |
| 20260830223232 | 26 | 128 | 3.2 | 3.2 | 0.00 | 2.21 | 2.21 | 96 | 1014.5 |
| 20260830222726 | 26 | 132 | 3.2 | 3.2 | 0.00 | 2.21 | 2.21 | 96 | 1014.6 |
| 20260830222221 | 26 | 129 | 3.2 | 3.2 | 0.00 | 2.21 | 2.21 | 96 | 1014.6 |
| 20260830221717 | 26 | 128 | 4.8 | 4.8 | 0.00 | 2.21 | 2.21 | 95 | 1014.6 |
| 20260830221214 | 26 | 131 | 4.8 | 4.8 | 0.00 | 2.21 | 2.21 | 95 | 1014.6 |
| 20260830220708 | 26 | 128 | 1.6 | 1.6 | 0.00 | 2.21 | 2.21 | 96 | 1015.0 |
| 20260830220202 | 26 | 128 | 1.6 | 3.2 | 0.00 | 2.21 | 2.21 | 96 | 1014.9 |
| 20260830215701 | 26 | 127 | 1.6 | 1.6 | 0.00 | 2.21 | 2.21 | 96 | 1014.7 |
| 20260830215155 | 25 | 125 | 1.6 | 1.6 | 0.00 | 2.21 | 2.21 | 96 | 1014.9 |
| 20260830214651 | 25 | 127 | 1.6 | 1.6 | 0.00 | 2.21 | 2.21 | 96 | 1014.8 |
| 20260830214145 | 25 | 129 | 0.0 | 0.0 | 0.00 | 2.21 | 2.21 | 96 | 1015.0 |
| 20260830213644 | 25 | 134 | 3.2 | 3.2 | 0.00 | 2.21 | 2.21 | 97 | 1014.9 |
| 20260830213140 | 25 | 129 | 3.2 | 3.2 | 0.00 | 2.21 | 2.21 | 96 | 1014.8 |
| 20260830212636 | 25 | 121 | 0.0 | 0.0 | 0.00 | 2.21 | 2.21 | 95 | 1014.9 |
| 20260830212131 | 25 | 126 | 0.0 | 0.0 | 0.00 | 2.21 | 2.21 | 95 | 1014.9 |
| 20260830211626 | 26 | 128 | 3.2 | 3.2 | 0.00 | 2.21 | 2.21 | 94 | 1014.9 |
| 20260830211125 | 25 | 121 | 1.6 | 1.6 | 0.00 | 2.21 | 2.21 | 93 | 1015.0 |
| 20260830210621 | 25 | 108 | 3.2 | 3.2 | 0.00 | 2.21 | 2.21 | 94 | 1015.3 |
| 20260830210120 | 26 | 121 | 0.0 | 0.0 | 0.00 | 2.21 | 2.21 | 94 | 1015.4 |
| 20260830205617 | 26 | 121 | 0.0 | 0.0 | 0.00 | 2.21 | 2.21 | 93 | 1015.1 |
| 20260830205113 | 26 | 121 | 0.0 | 0.0 | 0.00 | 2.21 | 2.21 | 93 | 1015.1 |
| 20260830204612 | 26 | 119 | 0.0 | 0.0 | 0.00 | 2.21 | 2.21 | 93 | 1015.2 |
| 20260830204111 | 26 | 121 | 0.0 | 0.0 | 0.00 | 2.21 | 2.21 | 93 | 1015.3 |
| 20260830203608 | 26 | 120 | 0.0 | 0.0 | 0.00 | 2.21 | 2.21 | 93 | 1015.4 |
| 20260830203107 | 26 | 117 | 0.0 | 0.0 | 0.00 | 2.21 | 2.21 | 92 | 1015.7 |
| 20260830202602 | 26 | 114 | 0.0 | 1.6 | 0.00 | 2.21 | 2.21 | 91 | 1015.2 |
| 20260830202058 | 26 | 106 | 3.2 | 3.2 | 0.00 | 2.21 | 2.21 | 92 | 1015.8 |
| 20260830201557 | 26 | 123 | 0.0 | 0.0 | 0.00 | 2.21 | 2.21 | 90 | 1015.8 |
| 20260830201052 | 26 | 54 | 3.2 | 4.8 | 0.00 | 2.21 | 2.21 | 89 | 1015.9 |
| 20260830200548 | 27 | 133 | 1.6 | 1.6 | 0.00 | 2.21 | 2.21 | 87 | 1015.8 |
| 20260830200046 | 27 | 149 | 4.8 | 4.8 | 0.00 | 2.21 | 2.21 | 88 | 1015.8 |
| 20260830195542 | 26 | 141 | 3.2 | 3.2 | 0.00 | 2.21 | 2.21 | 93 | 1015.8 |
| 20260830195040 | 26 | 137 | 3.2 | 3.2 | 0.00 | 2.21 | 2.21 | 95 | 1015.5 |
| 20260830194539 | 25 | 137 | 1.6 | 3.2 | 0.00 | 2.21 | 2.21 | 95 | 1015.9 |
| 20260830194039 | 25 | 141 | 3.2 | 3.2 | 0.00 | 2.21 | 2.21 | 97 | 1015.9 |
| 20260830193538 | 24 | 179 | 6.4 | 8.0 | 0.00 | 2.21 | 2.21 | 97 | 1016.0 |
| 20260830193034 | 24 | 127 | 1.6 | 1.6 | 0.00 | 2.21 | 2.21 | 96 | 1016.1 |
| 20260830192529 | 24 | 130 | 0.0 | 0.0 | 0.00 | 2.21 | 2.21 | 96 | 1016.3 |
| 20260830192024 | 23 | 124 | 1.6 | 1.6 | 0.00 | 2.21 | 2.21 | 96 | 1016.2 |
| 20260830191519 | 23 | 130 | 3.2 | 3.2 | 0.00 | 2.21 | 2.21 | 96 | 1016.6 |
| 20260830191014 | 23 | 141 | 3.2 | 3.2 | 0.61 | 2.21 | 2.21 | 96 | 1016.6 |
| 20260830190509 | 22 | 130 | 4.8 | 4.8 | 1.98 | 2.18 | 2.18 | 96 | 1016.6 |
| 20260830190004 | 22 | 112 | 11.3 | 12.9 | 4.14 | 2.11 | 2.11 | 97 | 1016.8 |
| 20260830185458 | 22 | 116 | 1.6 | 3.2 | 6.25 | 1.88 | 1.88 | 92 | 1017.2 |
| 20260830184953 | 23 | 312 | 4.8 | 4.8 | 8.23 | 1.42 | 1.42 | 92 | 1017.4 |
| 20260830184452 | 23 | 5 | 11.3 | 17.7 | 3.66 | 0.66 | 0.66 | 91 | 1017.1 |
| 20260830183942 | 24 | 160 | 4.8 | 4.8 | 0.00 | 0.05 | 0.05 | 87 | 1016.8 |
| 20260830183441 | 25 | 215 | 6.4 | 8.0 | 0.00 | 0.05 | 0.05 | 87 | 1016.4 |
| 20260830182932 | 26 | 165 | 4.8 | 4.8 | 0.00 | 0.05 | 0.05 | 87 | 1016.3 |
| 20260830182427 | 26 | 130 | 1.6 | 1.6 | 0.13 | 0.05 | 0.05 | 82 | 1016.4 |
| 20260830181923 | 27 | 149 | 4.8 | 4.8 | 0.30 | 0.05 | 0.05 | 81 | 1016.6 |
| 20260830181418 | 30 | 100 | 1.6 | 3.2 | 0.18 | 0.03 | 0.03 | 75 | 1016.6 |
| 20260830180913 | 30 | 186 | 4.8 | 8.0 | 0.00 | 0.00 | 0.00 | 73 | 1016.3 |
| 20260830180412 | 31 | 133 | 8.0 | 11.3 | 0.00 | 0.00 | 0.00 | 70 | 1016.7 |
| 20260830175912 | 31 | 137 | 9.7 | 11.3 | 0.00 | 0.00 | 0.00 | 68 | 1016.7 |
| 20260830175412 | 32 | 126 | 11.3 | 14.5 | 0.00 | 0.00 | 0.00 | 69 | 1016.8 |
| 20260830174907 | 31 | 158 | 6.4 | 8.0 | 0.00 | 0.00 | 0.00 | 69 | 1016.8 |
| 20260830174402 | 31 | 104 | 4.8 | 4.8 | 0.00 | 0.00 | 0.00 | 69 | 1016.7 |
| 20260830173857 | 31 | 131 | 3.2 | 4.8 | 0.00 | 0.00 | 0.00 | 70 | 1016.9 |
| 20260830173353 | 31 | 149 | 4.8 | 8.0 | 0.00 | 0.00 | 0.00 | 72 | 1017.0 |
| 20260830172849 | 31 | 139 | 6.4 | 9.7 | 0.00 | 0.00 | 0.00 | 72 | 1017.1 |
| 20260830172345 | 31 | 139 | 6.4 | 8.0 | 0.00 | 0.00 | 0.00 | 71 | 1017.3 |
| 20260830171840 | 30 | 119 | 3.2 | 3.2 | 0.00 | 0.00 | 0.00 | 70 | 1017.4 |
| 20260830171336 | 30 | 99 | 9.7 | 11.3 | 0.00 | 0.00 | 0.00 | 71 | 1017.5 |
| 20260830170831 | 31 | 132 | 8.0 | 11.3 | 0.00 | 0.00 | 0.00 | 69 | 1017.5 |
| 20260830170330 | 30 | 129 | 6.4 | 9.7 | 0.00 | 0.00 | 0.00 | 72 | 1017.4 |
| 20260830165829 | 30 | 125 | 4.8 | 4.8 | 0.00 | 0.00 | 0.00 | 71 | 1017.5 |
| 20260830165325 | 30 | 116 | 3.2 | 3.2 | 0.00 | 0.00 | 0.00 | 73 | 1017.5 |
| 20260830164821 | 31 | 137 | 6.4 | 8.0 | 0.00 | 0.00 | 0.00 | 71 | 1017.8 |
| 20260830164317 | 31 | 150 | 6.4 | 8.0 | 0.00 | 0.00 | 0.00 | 70 | 1017.7 |
| 20260830163814 | 30 | 87 | 6.4 | 8.0 | 0.00 | 0.00 | 0.00 | 74 | 1017.5 |
| 20260830163308 | 30 | 117 | 3.2 | 3.2 | 0.00 | 0.00 | 0.00 | 71 | 1017.5 |
| 20260830162803 | 31 | 102 | 6.4 | 8.0 | 0.00 | 0.00 | 0.00 | 71 | 1017.9 |
| 20260830162300 | 30 | 124 | 1.6 | 1.6 | 0.00 | 0.00 | 0.00 | 71 | 1017.6 |
| 20260830161755 | 30 | 147 | 4.8 | 4.8 | 0.00 | 0.00 | 0.00 | 71 | 1017.8 |
| 20260830161254 | 30 | 103 | 4.8 | 8.0 | 0.00 | 0.00 | 0.00 | 73 | 1017.7 |
| 20260830160749 | 29 | 115 | 4.8 | 9.7 | 0.00 | 0.00 | 0.00 | 76 | 1017.8 |
| 20260830160249 | 28 | 133 | 6.4 | 9.7 | 0.00 | 0.00 | 0.00 | 75 | 1018.0 |
| 20260830155745 | 29 | 59 | 6.4 | 9.7 | 0.00 | 0.00 | 0.00 | 73 | 1017.7 |
| 20260830155241 | 30 | 310 | 8.0 | 9.7 | 0.00 | 0.00 | 0.00 | 71 | 1017.7 |
| 20260830154736 | 30 | 90 | 1.6 | 1.6 | 0.00 | 0.00 | 0.00 | 72 | 1017.7 |
| 20260830154232 | 30 | 131 | 1.6 | 1.6 | 0.00 | 0.00 | 0.00 | 71 | 1017.9 |
| 20260830153728 | 29 | 125 | 4.8 | 4.8 | 0.00 | 0.00 | 0.00 | 73 | 1017.9 |
| 20260830153224 | 30 | 120 | 4.8 | 4.8 | 0.00 | 0.00 | 0.00 | 72 | 1017.7 |
| 20260830152721 | 30 | 169 | 4.8 | 4.8 | 0.00 | 0.00 | 0.00 | 72 | 1017.9 |
| 20260830152216 | 28 | 166 | 4.8 | 4.8 | 0.00 | 0.00 | 0.00 | 77 | 1017.7 |
| 20260830151711 | 28 | 136 | 4.8 | 4.8 | 0.00 | 0.00 | 0.00 | 75 | 1017.9 |
| 20260830151210 | 28 | 147 | 4.8 | 4.8 | 0.00 | 0.00 | 0.00 | 76 | 1017.8 |
| 20260830150705 | 28 | 185 | 11.3 | 14.5 | 0.00 | 0.00 | 0.00 | 75 | 1017.9 |
| 20260830150205 | 28 | 102 | 6.4 | 9.7 | 0.00 | 0.00 | 0.00 | 76 | 1017.8 |
| 20260830145700 | 28 | 127 | 6.4 | 8.0 | 0.00 | 0.00 | 0.00 | 75 | 1018.0 |
| 20260830145155 | 28 | 57 | 8.0 | 9.7 | 0.00 | 0.00 | 0.00 | 75 | 1017.8 |
| 20260830144650 | 28 | 153 | 4.8 | 4.8 | 0.00 | 0.00 | 0.00 | 75 | 1017.8 |
| 20260830144146 | 28 | 131 | 4.8 | 4.8 | 0.00 | 0.00 | 0.00 | 76 | 1017.6 |
| 20260830143642 | 28 | 137 | 4.8 | 4.8 | 0.00 | 0.00 | 0.00 | 77 | 1017.6 |
| 20260830143140 | 27 | 125 | 3.2 | 3.2 | 0.00 | 0.00 | 0.00 | 78 | 1017.4 |
| 20260830142635 | 27 | 114 | 3.2 | 3.2 | 0.00 | 0.00 | 0.00 | 78 | 1017.5 |
| 20260830142130 | 27 | 137 | 6.4 | 8.0 | 0.00 | 0.00 | 0.00 | 78 | 1017.5 |
| 20260830141625 | 27 | 127 | 4.8 | 4.8 | 0.00 | 0.00 | 0.00 | 80 | 1017.2 |
| 20260830141120 | 26 | 152 | 4.8 | 4.8 | 0.00 | 0.00 | 0.00 | 81 | 1017.4 |
| 20260830140615 | 26 | 120 | 4.8 | 8.0 | 0.00 | 0.00 | 0.00 | 82 | 1017.5 |
| 20260830140115 | 26 | 119 | 4.8 | 8.0 | 0.00 | 0.00 | 0.00 | 83 | 1017.4 |
| 20260830135610 | 26 | 122 | 8.0 | 9.7 | 0.00 | 0.00 | 0.00 | 83 | 1017.2 |
| 20260830135105 | 25 | 128 | 4.8 | 4.8 | 0.00 | 0.00 | 0.00 | 85 | 1017.3 |
| 20260830134601 | 25 | 110 | 1.6 | 3.2 | 0.00 | 0.00 | 0.00 | 86 | 1017.5 |
| 20260830134056 | 25 | 108 | 4.8 | 4.8 | 0.00 | 0.00 | 0.00 | 87 | 1017.3 |
| 20260830133551 | 25 | 120 | 3.2 | 3.2 | 0.00 | 0.00 | 0.00 | 88 | 1017.3 |
| 20260830133046 | 24 | 121 | 4.8 | 4.8 | 0.00 | 0.00 | 0.00 | 88 | 1017.4 |
| 20260830132542 | 24 | 59 | 6.4 | 8.0 | 0.00 | 0.00 | 0.00 | 89 | 1017.5 |
| 20260830132037 | 23 | 119 | 3.2 | 3.2 | 0.00 | 0.00 | 0.00 | 91 | 1017.3 |
| 20260830131536 | 23 | 85 | 6.4 | 8.0 | 0.00 | 0.00 | 0.00 | 91 | 1017.4 |
| 20260830131031 | 23 | 117 | 4.8 | 8.0 | 0.00 | 0.00 | 0.00 | 93 | 1017.2 |
| 20260830130526 | 22 | 128 | 4.8 | 8.0 | 0.00 | 0.00 | 0.00 | 95 | 1017.4 |
| 20260830130022 | 22 | 135 | 4.8 | 4.8 | 0.00 | 0.00 | 0.00 | 97 | 1017.3 |
| 20260830125516 | 21 | 118 | 3.2 | 4.8 | 0.00 | 0.00 | 0.00 | 99 | 1017.5 |
| 20260830125015 | 21 | 124 | 0.0 | 0.0 | 0.00 | 0.00 | 0.00 | 99 | 1017.3 |
| 20260830124509 | 21 | 124 | 0.0 | 0.0 | 0.00 | 0.00 | 0.00 | 99 | 1017.3 |
| 20260830124005 | 21 | 125 | 1.6 | 3.2 | 0.00 | 0.00 | 0.00 | 99 | 1017.3 |
| 20260830123502 | 20 | 130 | 3.2 | 3.2 | 0.00 | 0.00 | 0.00 | 99 | 1017.4 |
| 20260830123001 | 20 | 123 | 0.0 | 0.0 | 0.00 | 0.00 | 0.00 | 99 | 1017.3 |
| 20260830122459 | 19 | 126 | 0.0 | 0.0 | 0.00 | 0.00 | 0.00 | 99 | 1017.3 |
| 20260830121954 | 19 | 125 | 0.0 | 0.0 | 0.00 | 0.00 | 0.00 | 99 | 1017.3 |
| 20260830121449 | 19 | 125 | 0.0 | 0.0 | 0.00 | 0.00 | 0.00 | 99 | 1017.1 |
| 20260830120943 | 18 | 125 | 0.0 | 0.0 | 0.00 | 0.00 | 0.00 | 99 | 1017.1 |
| 20260830120439 | 18 | 126 | 0.0 | 0.0 | 0.00 | 0.00 | 0.00 | 99 | 1017.2 |
| 20260830115936 | 18 | 125 | 0.0 | 0.0 | 0.00 | 0.00 | 0.00 | 99 | 1017.2 |
| 20260830115431 | 18 | 126 | 0.0 | 0.0 | 0.00 | 0.00 | 0.00 | 99 | 1017.1 |
| 20260830114927 | 18 | 126 | 0.0 | 0.0 | 0.00 | 0.00 | 0.00 | 99 | 1017.1 |
| 20260830114423 | 18 | 125 | 0.0 | 0.0 | 0.00 | 0.00 | 0.00 | 99 | 1017.3 |
| 20260830113923 | 17 | 125 | 0.0 | 0.0 | 0.00 | 0.00 | 0.00 | 99 | 1017.1 |
| 20260830113418 | 17 | 125 | 0.0 | 0.0 | 0.00 | 0.00 | 0.00 | 99 | 1017.2 |
| 20260830112914 | 17 | 126 | 0.0 | 0.0 | 0.00 | 0.00 | 0.00 | 99 | 1017.1 |
| 20260830112409 | 17 | 125 | 0.0 | 0.0 | 0.00 | 0.00 | 0.00 | 99 | 1017.1 |
| 20260830111905 | 17 | 125 | 0.0 | 0.0 | 0.00 | 0.00 | 0.00 | 99 | 1017.1 |
| 20260830111401 | 17 | 126 | 0.0 | 0.0 | 0.00 | 0.00 | 0.00 | 99 | 1016.8 |
| 20260830110855 | 17 | 126 | 0.0 | 0.0 | 0.00 | 0.00 | 0.00 | 99 | 1016.8 |
| 20260830110352 | 17 | 126 | 0.0 | 0.0 | 0.00 | 0.00 | 0.00 | 99 | 1016.6 |
| 20260830105850 | 17 | 126 | 0.0 | 0.0 | 0.00 | 0.00 | 0.00 | 99 | 1016.7 |
| 20260830105347 | 17 | 126 | 0.0 | 0.0 | 0.00 | 0.00 | 0.00 | 99 | 1016.6 |
| 20260830104843 | 17 | 126 | 0.0 | 0.0 | 0.00 | 0.00 | 0.00 | 99 | 1016.4 |
| 20260830104340 | 17 | 126 | 0.0 | 0.0 | 0.00 | 0.00 | 0.00 | 99 | 1016.5 |
| 20260830103838 | 17 | 126 | 0.0 | 0.0 | 0.00 | 0.00 | 0.00 | 99 | 1016.7 |
| 20260830103335 | 17 | 127 | 0.0 | 0.0 | 0.00 | 0.00 | 0.00 | 99 | 1016.8 |
| 20260830102832 | 17 | 127 | 0.0 | 0.0 | 0.00 | 0.00 | 0.00 | 99 | 1016.6 |
| 20260830102328 | 17 | 127 | 0.0 | 0.0 | 0.00 | 0.00 | 0.00 | 99 | 1016.7 |
| 20260830101825 | 17 | 127 | 0.0 | 0.0 | 0.00 | 0.00 | 0.00 | 99 | 1016.7 |
| 20260830101320 | 17 | 127 | 0.0 | 0.0 | 0.00 | 0.00 | 0.00 | 99 | 1016.6 |
| 20260830100819 | 17 | 127 | 0.0 | 0.0 | 0.00 | 0.00 | 0.00 | 99 | 1016.8 |
| 20260830100318 | 17 | 127 | 0.0 | 0.0 | 0.00 | 0.00 | 0.00 | 99 | 1016.9 |
| 20260830095251 | 17 | 127 | 0.0 | 0.0 | 0.00 | 0.00 | 0.00 | 99 | 1016.8 |
| 20260830094746 | 17 | 127 | 0.0 | 0.0 | 0.00 | 0.00 | 0.00 | 99 | 1016.8 |
| 20260830094242 | 17 | 127 | 0.0 | 0.0 | 0.00 | 0.00 | 0.00 | 99 | 1016.9 |
| 20260830093737 | 17 | 127 | 0.0 | 0.0 | 0.00 | 0.00 | 0.00 | 99 | 1016.8 |
| 20260830093233 | 17 | 127 | 0.0 | 0.0 | 0.00 | 0.00 | 0.00 | 99 | 1016.8 |
| 20260830092732 | 17 | 127 | 0.0 | 0.0 | 0.00 | 0.00 | 0.00 | 99 | 1016.5 |
| 20260830092230 | 18 | 127 | 0.0 | 0.0 | 0.00 | 0.00 | 0.00 | 99 | 1016.8 |
| 20260830091725 | 18 | 128 | 0.0 | 0.0 | 0.00 | 0.00 | 0.00 | 99 | 1016.8 |
| 20260830091224 | 18 | 126 | 0.0 | 0.0 | 0.00 | 0.00 | 0.00 | 99 | 1016.8 |
| 20260830090718 | 18 | 128 | 0.0 | 0.0 | 0.00 | 0.00 | 0.00 | 99 | 1016.7 |
| 20260830085407 | 17 | 127 | 0.0 | 0.0 | 0.00 | 0.00 | 0.00 | 99 | 1016.6 |
| 20260830084903 | 17 | 127 | 0.0 | 0.0 | 0.00 | 0.00 | 0.00 | 99 | 1016.6 |
| 20260830084357 | 18 | 127 | 0.0 | 0.0 | 0.00 | 0.00 | 0.00 | 99 | 1016.7 |
| 20260830083853 | 17 | 127 | 0.0 | 0.0 | 0.00 | 0.00 | 0.00 | 99 | 1016.6 |
| 20260830083349 | 17 | 127 | 0.0 | 0.0 | 0.00 | 0.00 | 0.00 | 99 | 1016.7 |
| 20260830082848 | 17 | 127 | 0.0 | 0.0 | 0.00 | 0.00 | 0.00 | 99 | 1016.7 |
| 20260830082343 | 18 | 127 | 0.0 | 0.0 | 0.00 | 0.00 | 0.00 | 99 | 1016.6 |
| 20260830081839 | 18 | 127 | 0.0 | 0.0 | 0.00 | 0.00 | 0.00 | 99 | 1016.4 |
| 20260830081338 | 18 | 127 | 0.0 | 0.0 | 0.00 | 0.00 | 0.00 | 99 | 1016.5 |
| 20260830080833 | 18 | 127 | 0.0 | 0.0 | 0.00 | 0.00 | 0.00 | 99 | 1016.6 |
| 20260830080330 | 18 | 127 | 0.0 | 0.0 | 0.00 | 0.00 | 0.00 | 99 | 1016.4 |
| 20260830075828 | 18 | 127 | 0.0 | 0.0 | 0.00 | 0.00 | 0.00 | 99 | 1016.6 |
| 20260830075324 | 18 | 127 | 0.0 | 0.0 | 0.00 | 0.00 | 0.00 | 99 | 1016.5 |
| 20260830074819 | 18 | 127 | 0.0 | 0.0 | 0.00 | 0.00 | 0.00 | 99 | 1016.4 |
| 20260830074315 | 18 | 127 | 0.0 | 0.0 | 0.00 | 0.00 | 0.00 | 99 | 1016.5 |
| 20260830073811 | 18 | 127 | 0.0 | 0.0 | 0.00 | 0.00 | 0.00 | 99 | 1016.5 |
| 20260830073306 | 18 | 127 | 0.0 | 0.0 | 0.00 | 0.00 | 0.00 | 99 | 1016.4 |
| 20260830072800 | 18 | 127 | 0.0 | 0.0 | 0.00 | 0.00 | 0.00 | 99 | 1016.3 |
| 20260830072256 | 18 | 127 | 0.0 | 0.0 | 0.00 | 0.00 | 0.00 | 99 | 1016.4 |
| 20260830071755 | 18 | 127 | 0.0 | 0.0 | 0.00 | 0.00 | 0.00 | 99 | 1016.3 |
| 20260830071250 | 18 | 127 | 0.0 | 0.0 | 0.00 | 0.00 | 0.00 | 99 | 1016.3 |
| 20260830070749 | 18 | 127 | 0.0 | 0.0 | 0.00 | 0.00 | 0.00 | 99 | 1016.5 |
| 20260830070243 | 18 | 127 | 0.0 | 0.0 | 0.00 | 0.00 | 0.00 | 99 | 1016.4 |
| 20260830065743 | 18 | 127 | 0.0 | 0.0 | 0.00 | 0.00 | 0.00 | 99 | 1016.6 |
| 20260830065237 | 18 | 127 | 0.0 | 0.0 | 0.00 | 0.00 | 0.00 | 99 | 1016.6 |
| 20260830064735 | 18 | 127 | 0.0 | 0.0 | 0.00 | 0.00 | 0.00 | 99 | 1016.6 |
| 20260830064226 | 18 | 126 | 0.0 | 0.0 | 0.00 | 0.00 | 0.00 | 99 | 1016.8 |
| 20260830063726 | 18 | 127 | 1.6 | 1.6 | 0.00 | 0.00 | 0.00 | 99 | 1016.7 |
| 20260830063225 | 18 | 129 | 1.6 | 1.6 | 0.00 | 0.00 | 0.00 | 99 | 1016.6 |
| 20260830062719 | 18 | 126 | 0.0 | 0.0 | 0.00 | 0.00 | 0.00 | 99 | 1016.8 |
| 20260830061453 | 19 | 127 | 0.0 | 0.0 | 0.00 | 0.00 | 0.00 | 99 | 1016.9 |
| 20260830060949 | 19 | 127 | 0.0 | 0.0 | 0.00 | 0.00 | 0.00 | 99 | 1016.9 |
| 20260830060446 | 19 | 127 | 0.0 | 0.0 | 0.00 | 0.00 | 0.00 | 99 | 1016.7 |
| 20260830055941 | 19 | 127 | 0.0 | 0.0 | 0.00 | 0.00 | 0.00 | 99 | 1016.9 |
| 20260830055436 | 19 | 127 | 0.0 | 0.0 | 0.00 | 0.00 | 0.00 | 99 | 1016.8 |
| 20260830054932 | 19 | 127 | 0.0 | 0.0 | 0.00 | 0.00 | 0.00 | 99 | 1017.0 |
| 20260830054428 | 19 | 124 | 0.0 | 0.0 | 0.00 | 0.00 | 0.00 | 99 | 1016.9 |
| 20260830053923 | 20 | 121 | 0.0 | 0.0 | 0.00 | 0.00 | 0.00 | 99 | 1016.9 |
| 20260830053419 | 19 | 116 | 0.0 | 0.0 | 0.00 | 0.00 | 0.00 | 99 | 1016.9 |
| 20260830052917 | 19 | 124 | 0.0 | 0.0 | 0.00 | 0.00 | 0.00 | 99 | 1017.0 |
| 20260830052413 | 19 | 126 | 0.0 | 0.0 | 0.00 | 0.00 | 0.00 | 99 | 1016.9 |
| 20260830051908 | 20 | 126 | 0.0 | 0.0 | 0.00 | 0.00 | 0.00 | 99 | 1016.8 |
| 20260830051404 | 20 | 131 | 0.0 | 0.0 | 0.00 | 0.00 | 0.00 | 99 | 1016.7 |
| 20260830050903 | 20 | 128 | 0.0 | 0.0 | 0.00 | 0.00 | 0.00 | 99 | 1016.8 |
| 20260830050358 | 20 | 128 | 0.0 | 0.0 | 0.00 | 0.00 | 0.00 | 99 | 1016.6 |
| 20260830045856 | 20 | 128 | 0.0 | 0.0 | 0.00 | 0.00 | 0.00 | 99 | 1016.7 |
| 20260830045352 | 20 | 128 | 0.0 | 0.0 | 0.00 | 0.00 | 0.00 | 99 | 1016.8 |
| 20260830044850 | 20 | 128 | 0.0 | 0.0 | 0.00 | 0.00 | 0.00 | 99 | 1016.8 |
| 20260830044346 | 20 | 128 | 0.0 | 0.0 | 0.00 | 0.00 | 0.00 | 99 | 1016.8 |
| 20260830043841 | 20 | 128 | 0.0 | 0.0 | 0.00 | 0.00 | 0.00 | 99 | 1016.8 |
| 20260830043336 | 20 | 128 | 0.0 | 0.0 | 0.00 | 0.00 | 0.00 | 99 | 1016.5 |
| 20260830042833 | 20 | 128 | 0.0 | 0.0 | 0.00 | 0.00 | 0.00 | 99 | 1016.8 |
| 20260830042328 | 20 | 128 | 0.0 | 0.0 | 0.00 | 0.00 | 0.00 | 99 | 1016.8 |
| 20260830041826 | 20 | 128 | 0.0 | 0.0 | 0.00 | 0.00 | 0.00 | 99 | 1016.9 |
| 20260830041320 | 20 | 128 | 0.0 | 0.0 | 0.00 | 0.00 | 0.00 | 99 | 1016.8 |
| 20260830040816 | 20 | 129 | 0.0 | 0.0 | 0.00 | 0.00 | 0.00 | 99 | 1016.9 |
| 20260830040313 | 20 | 129 | 0.0 | 0.0 | 0.00 | 0.00 | 0.00 | 99 | 1016.8 |
| 20260830035811 | 20 | 128 | 0.0 | 0.0 | 0.00 | 0.00 | 0.00 | 99 | 1016.9 |
| 20260830035310 | 20 | 129 | 0.0 | 0.0 | 0.00 | 0.00 | 0.00 | 99 | 1016.7 |
| 20260830034806 | 20 | 128 | 0.0 | 0.0 | 0.00 | 0.00 | 0.00 | 99 | 1016.9 |
| 20260830034306 | 20 | 128 | 0.0 | 0.0 | 0.00 | 0.00 | 0.00 | 99 | 1016.7 |